Fowler, IL

7:05 PM CST on February 10, 2016 (GMT -0600)
Quincy Regional-Baldwin

Weather History for KUIN - April, 2014

Change the Weather History Date:

Sunday, April 27, 2014

  Actual Average Record
Temperature  
Mean Temperature 65 °F 57 °F  
Max Temperature 79 °F 67 °F 90 °F (1914)
Min Temperature 51 °F 47 °F 32 °F (1967)
Degree Days  
Heating Degree Days 0 9  
Month to date heating degree days 317 346  
Since 1 July heating degree days 6089 5406  
Cooling Degree Days 0 1  
Month to date cooling degree days 4 14  
Year to date cooling degree days 4 16  
Growing Degree Days 14 (Base 50)    
Moisture  
Dew Point 57 °F    
Average Humidity 72    
Maximum Humidity 87    
Minimum Humidity 57    
Precipitation  
Precipitation 0.65 in 0.13 in 2.05 in (1917)
Month to date precipitation 2.97 3.30  
Year to date precipitation 5.77 9.16  
Sea Level Pressure  
Sea Level Pressure 29.60 in    
Wind  
Wind Speed 14 mph (SE)    
Max Wind Speed 25 mph    
Max Gust Speed 32 mph    
Visibility 9 miles    
Events Fog , Rain , Thunderstorm    
T = Trace of Precipitation, MM = Missing Value Source: NWS Daily Summary

Daily Weather History Graph

Daily Weather History Graph

Search for Another Location

Airport or City:

Trip Planner

Search our weather history database for the weather conditions in past years. The results will help you decide how hot, cold, wet, or windy it might be!

Date:

Astronomy

Apr. 27, 2014 Rise Set
Actual Time 6:10 AM CDT 7:55 PM CDT
Civil Twilight 5:41 AM CDT 8:24 PM CDT
Nautical Twilight 5:06 AM CDT 8:59 PM CDT
Astronomical Twilight 4:28 AM CDT 9:37 PM CDT
Moon 5:10 AM CDT (4/27) 6:29 PM CDT (4/27)
Length of Visible Light 14h 43m
Length of Day
13h 45m
Waning Crescent, 3% of the Moon is Illuminated
Apr 27
Waning Crescent
Apr 29
New
May 6
First Quarter
May 14
Full
May 21
Last Quarter

Hourly Weather History & Observations

Time (CDT) Temp. Dew Point Humidity Pressure Visibility Wind Dir Wind Speed Gust Speed Precip Events Conditions
12:54 AM 57.0 °F 46.0 °F 67% 29.76 in 10.0 mi East 17.3 mph - N/A   Clear
1:54 AM 53.1 °F 41.0 °F 64% 29.79 in 10.0 mi East 15.0 mph - N/A   Clear
2:54 AM 52.0 °F 39.0 °F 61% 29.79 in 10.0 mi East 12.7 mph - N/A   Partly Cloudy
3:54 AM 51.8 °F 39.2 °F 62% 29.78 in 10.0 mi East 13.8 mph 21.9 mph N/A   Clear
4:54 AM 52.0 °F 39.0 °F 61% 29.75 in 10.0 mi East 15.0 mph - N/A   Scattered Clouds
5:54 AM 53.1 °F 39.9 °F 61% 29.73 in 10.0 mi East 17.3 mph - N/A   Clear
6:54 AM 55.0 °F 43.0 °F 64% 29.68 in 10.0 mi ESE 18.4 mph 31.1 mph N/A   Clear
7:54 AM 57.0 °F 45.0 °F 64% 29.70 in 10.0 mi ESE 17.3 mph - N/A   Scattered Clouds
8:54 AM 61.0 °F 46.9 °F 60% 29.66 in 10.0 mi ESE 18.4 mph 26.5 mph N/A   Clear
9:54 AM 69.1 °F 53.1 °F 57% 29.61 in 10.0 mi ESE 19.6 mph - N/A   Clear
10:54 AM 73.9 °F 57.0 °F 55% 29.61 in 10.0 mi SSE 18.4 mph 28.8 mph N/A   Clear
11:54 AM 75.9 °F 59.0 °F 56% 29.60 in 10.0 mi South 13.8 mph 24.2 mph 0.00 in   Mostly Cloudy
12:50 PM 75.2 °F 60.8 °F 61% 29.61 in 10.0 mi SSE 15.0 mph 21.9 mph N/A Thunderstorm Mostly Cloudy
12:54 PM 73.9 °F 61.0 °F 64% 29.60 in 10.0 mi SE 15.0 mph 21.9 mph 0.00 in Rain , Thunderstorm Light Rain
1:05 PM 75.0 °F 60.1 °F 60% 29.60 in 10.0 mi SE 17.3 mph - 0.00 in   Overcast
1:54 PM 77.0 °F 60.1 °F 56% 29.56 in 10.0 mi SE 20.7 mph 31.1 mph 0.00 in   Overcast
2:31 PM 70.0 °F 63.0 °F 78% 29.56 in 6.0 mi SE 16.1 mph 25.3 mph 0.00 in Rain , Thunderstorm Light Rain
2:41 PM 68.0 °F 64.0 °F 87% 29.58 in 2.5 mi SSE 11.5 mph - 0.07 in Rain , Thunderstorm Thunderstorms and Rain
2:54 PM 68.0 °F 66.2 °F 94% 29.57 in 10.0 mi South 8.1 mph - N/A Rain , Thunderstorm Light Thunderstorms and Rain
3:15 PM 71.1 °F 64.0 °F 78% 29.55 in 10.0 mi SSE 8.1 mph - 0.00 in Thunderstorm Mostly Cloudy
3:39 PM 72.0 °F 66.0 °F 81% 29.56 in 10.0 mi SE 8.1 mph - 0.00 in   Partly Cloudy
3:47 PM 72.0 °F 66.0 °F 81% 29.56 in 10.0 mi SE 6.9 mph - 0.00 in Thunderstorm Scattered Clouds
3:54 PM 73.0 °F 66.9 °F 81% 29.55 in 10.0 mi SE 8.1 mph - 0.00 in Thunderstorm Mostly Cloudy
4:15 PM 73.0 °F 66.9 °F 81% 29.58 in 10.0 mi SW 3.5 mph - N/A   Overcast
4:29 PM 66.9 °F 61.0 °F 81% 29.59 in 10.0 mi WNW 17.3 mph 29.9 mph N/A Thunderstorm Overcast
4:54 PM 62.1 °F 57.9 °F 86% 29.60 in 10.0 mi West 16.1 mph - 0.00 in Rain , Thunderstorm Light Rain
5:04 PM 61.0 °F 59.0 °F 93% 29.62 in 1.0 mi SW 10.4 mph 20.7 mph 0.15 in Rain , Thunderstorm Heavy Thunderstorms and Rain
5:10 PM 61.0 °F 60.1 °F 97% 29.61 in 0.5 mi North - - 0.31 in Fog , Rain , Thunderstorm Heavy Thunderstorms and Rain
5:17 PM 62.1 °F 60.1 °F 93% 29.58 in 1.0 mi SE 13.8 mph - 0.34 in Rain , Thunderstorm Thunderstorms and Rain
5:22 PM 63.0 °F 60.1 °F 90% 29.57 in 3.0 mi SE 18.4 mph 24.2 mph 0.34 in Rain , Thunderstorm Light Thunderstorms and Rain
5:47 PM 64.0 °F 61.0 °F 90% 29.53 in 10.0 mi SE 19.6 mph 25.3 mph 0.34 in Thunderstorm Scattered Clouds
5:54 PM 64.9 °F 61.0 °F 87% 29.52 in 10.0 mi ESE 19.6 mph 26.5 mph 0.34 in Thunderstorm Partly Cloudy
6:01 PM 64.9 °F 61.0 °F 87% 29.52 in 10.0 mi ESE 15.0 mph 28.8 mph N/A   Clear
6:54 PM 64.9 °F 60.1 °F 84% 29.56 in 10.0 mi Calm Calm - N/A   Clear
7:54 PM 64.9 °F 61.0 °F 87% 29.57 in 10.0 mi East 6.9 mph - N/A   Partly Cloudy
8:31 PM 64.9 °F 62.1 °F 90% 29.60 in 10.0 mi South 5.8 mph - 0.01 in Rain , Thunderstorm Light Thunderstorms and Rain
8:50 PM 64.4 °F 60.8 °F 88% 29.56 in 10.0 mi SE 9.2 mph - 0.02 in Rain Light Rain
8:54 PM 64.9 °F 61.0 °F 87% 29.58 in 10.0 mi South 10.4 mph - 0.02 in Rain Light Rain
9:31 PM 66.0 °F 61.0 °F 84% 29.59 in 8.0 mi SSE 16.1 mph 25.3 mph 0.01 in Rain , Thunderstorm Light Rain
9:46 PM 64.0 °F 61.0 °F 90% 29.57 in 6.0 mi ESE 13.8 mph - 0.04 in Rain Light Rain
9:54 PM 64.0 °F 61.0 °F 90% 29.56 in 7.0 mi SE 12.7 mph - 0.05 in Rain Light Rain
10:54 PM 64.0 °F 61.0 °F 90% 29.55 in 10.0 mi SE 13.8 mph - 0.01 in   Scattered Clouds
11:17 PM 64.0 °F 62.1 °F 93% 29.55 in 9.0 mi SE 20.7 mph 31.1 mph 0.01 in Rain , Thunderstorm Light Rain
11:34 PM 64.0 °F 61.0 °F 90% 29.54 in 10.0 mi SE 23.0 mph 29.9 mph 0.02 in   Mostly Cloudy
11:54 PM 64.0 °F 61.0 °F 90% 29.51 in 10.0 mi SE 18.4 mph 26.5 mph 0.02 in   Mostly Cloudy